Minneapolis Crystal, MN

8:20 AM CDT on July 20, 2017 (GMT -0500)
Crystal

Weather History for KMIC - April, 2014

Change the Weather History Date:

Monday, April 14, 2014

  Actual Average Record
Temperature  
Mean Temperature 32 °F -  
Max Temperature 39 °F 54 °F 89 °F (2003)
Min Temperature 26 °F 34 °F 21 °F (2008)
Degree Days  
Heating Degree Days 32    
Moisture  
Dew Point 11 °F    
Average Humidity 44    
Maximum Humidity 64    
Minimum Humidity 24    
Precipitation  
Precipitation 0.00 in - - ()
Sea Level Pressure  
Sea Level Pressure 30.05 in    
Wind  
Wind Speed 18 mph (NNW)    
Max Wind Speed 21 mph    
Max Gust Speed 32 mph    
Visibility 10 miles    
Events      
Averages and records for this station are not official NWS values.
T = Trace of Precipitation, MM = Missing Value Source: NWS Daily Summary

Daily Weather History Graph

Daily Weather History Graph

Search for Another Location

Airport or City:

Trip Planner

Search our weather history database for the weather conditions in past years. The results will help you decide how hot, cold, wet, or windy it might be!

Date:

Astronomy

Apr. 14, 2014 Rise Set
Actual Time 6:30 AM CDT 7:57 PM CDT
Civil Twilight 5:59 AM CDT 8:28 PM CDT
Nautical Twilight 5:22 AM CDT 9:05 PM CDT
Astronomical Twilight 4:43 AM CDT 9:45 PM CDT
Moon 7:36 PM CDT (4/14) 6:04 AM CDT (4/14)
Length of Visible Light 14h 28m
Length of Day
13h 27m
Full, 100% of the Moon is Illuminated
Apr 14
Full
Apr 15
Full
Apr 22
Last Quarter
Apr 29
New
May 6
First Quarter

Hourly Weather History & Observations

Time (CDT) Temp. Windchill Dew Point Humidity Pressure Visibility Wind Dir Wind Speed Gust Speed Precip Events Conditions
12:53 AM 33.1 °F 21.2 °F 19.0 °F 56% 29.96 in 10.0 mi NNW 20.7 mph 32.2 mph N/A   Overcast
1:53 AM 32.0 °F 20.8 °F 19.0 °F 59% 29.96 in 10.0 mi NNW 17.3 mph 31.1 mph N/A   Overcast
2:50 AM 30.2 °F 17.4 °F 19.4 °F 64% 29.93 in 10.0 mi NNW 20.7 mph 27.6 mph N/A   Overcast
2:53 AM 30.9 °F 19.4 °F 19.0 °F 61% 29.95 in 10.0 mi NNW 17.3 mph 27.6 mph N/A   Overcast
3:43 AM 30.0 °F 17.2 °F 17.1 °F 59% 29.93 in 10.0 mi North 20.7 mph 32.2 mph N/A   Overcast
4:53 AM 28.9 °F 16.1 °F 15.1 °F 56% 29.97 in 10.0 mi NNW 19.6 mph 26.5 mph N/A   Mostly Cloudy
5:53 AM 28.0 °F 16.5 °F 15.1 °F 58% 29.98 in 10.0 mi NNW 15.0 mph - N/A   Partly Cloudy
6:53 AM 28.0 °F 16.1 °F 14.0 °F 56% 30.03 in 10.0 mi NNW 16.1 mph 28.8 mph N/A   Mostly Cloudy
7:53 AM 28.0 °F 16.1 °F 14.0 °F 56% 30.05 in 10.0 mi North 16.1 mph 27.6 mph N/A   Partly Cloudy
8:53 AM 28.9 °F 16.5 °F 12.9 °F 51% 30.08 in 10.0 mi NNW 18.4 mph 25.3 mph N/A   Partly Cloudy
9:53 AM 30.0 °F 17.2 °F 10.0 °F 43% 30.08 in 10.0 mi NNW 20.7 mph 29.9 mph N/A   Clear
10:53 AM 32.0 °F 19.8 °F 8.1 °F 37% 30.08 in 10.0 mi North 20.7 mph 27.6 mph N/A   Clear
11:53 AM 34.0 °F 22.4 °F 7.0 °F 32% 30.09 in 10.0 mi North 20.7 mph 31.1 mph N/A   Clear
1:53 PM 37.0 °F 26.4 °F 7.0 °F 29% 30.09 in 10.0 mi NW 20.7 mph 29.9 mph N/A   Mostly Cloudy
2:53 PM 37.0 °F 27.7 °F 7.0 °F 29% 30.08 in 10.0 mi NW 16.1 mph - N/A   Overcast
3:53 PM 37.0 °F 27.0 °F 3.0 °F 24% 30.07 in 10.0 mi NW 18.4 mph 29.9 mph N/A   Mostly Cloudy
4:53 PM 37.0 °F 29.3 °F 5.0 °F 26% 30.06 in 10.0 mi NW 11.5 mph 20.7 mph N/A   Mostly Cloudy
5:53 PM 34.0 °F 24.2 °F 3.9 °F 28% 30.08 in 10.0 mi NNW 15.0 mph 26.5 mph N/A   Mostly Cloudy
6:53 PM 34.0 °F 23.0 °F 5.0 °F 30% 30.09 in 10.0 mi NNW 18.4 mph 25.3 mph N/A   Mostly Cloudy
7:53 PM 32.0 °F 21.2 °F 5.0 °F 32% 30.11 in 10.0 mi NW 16.1 mph 23.0 mph N/A   Scattered Clouds
8:53 PM 30.0 °F 19.5 °F 6.1 °F 36% 30.12 in 10.0 mi NNW 13.8 mph - N/A   Clear
9:53 PM 28.9 °F 18.6 °F 9.0 °F 43% 30.14 in 10.0 mi NW 12.7 mph - N/A   Partly Cloudy
10:53 PM 28.0 °F 17.5 °F 10.0 °F 47% 30.14 in 10.0 mi NW 12.7 mph - N/A   Clear
11:53 PM 26.1 °F 16.2 °F 10.9 °F 53% 30.14 in 10.0 mi NW 10.4 mph - N/A   Mostly Cloudy